(70) Panopaea
ephemeris date magn radius delta ra dec elong phase
Today4 Sep 202612.72.193 AU2.125 AU15h49m-28°08'80.3°27.0°
Opposition2 Nov 202711.42.581 AU1.589 AU02h33m+12°21'177.3°1.0°
(70) Panopaea - 2026-09-04
astro.vanbuitenen.nl


 
-1 year
-1 month
-1 day
Now
+1 day
+1 month
+1 year

The interactive orbit chart above shows the body's path through the solar system and its position at the given date. Green and blue lines are shown perpendicular to the ecliptic plane: Green if the path is above the ecliptic plane, blue if it is below. (Left-click and drag to rotate the view; Right-click and drag to move the view; Use scroll wheel to zoom in our out.)

The orbital elements of Panopaea are:

            e (Eccentricity)                : 0.1831105
            a (Semimajor axis)              : 2.6139718
            i (Inclination)                 : 11.59605
            Ω (Longitude of ascending node) : 47.63840
            ω (Argument of perihelion)      : 255.40133
            M (Mean anomaly)                : 316.26477
            Epoch                           : 2026 Jun 09

            L (Longitude of perihelion)     : 122.74893
            B (Latitude of perihelion)      : -11.21673
            P (Orbital period in years)     : 4.23            
        

The light curve chart below shows the estimated development of the minor planet's magnitude.


The all-sky chart below shows the path of the minor planet over the same period as the light curve. The current position is marked yellow.





The following chart shows the path of the minor planet in the next few days. The field of view is optimized for (~10x50) binoculars and finderscopes.




Ephemerides:
Date       Time       RA (2000)    DEC (2000)    delta   radius  elong  phase   PA    magn
2026-09-04 00:00 UT   15 49 29.8   -28 08 45     2.125    2.193   80.3   27.0   104   12.7 
2026-09-04 21:47 UT   15 50 57.4   -28 13 31     2.134    2.192   79.7   26.9   104   12.7 
2026-09-05 00:00 UT   15 51 06.4   -28 14 01     2.135    2.192   79.7   26.9   104   12.7 
2026-09-06 00:00 UT   15 52 44.0   -28 19 15     2.145    2.191   79.1   26.9   104   12.7 
2026-09-07 00:00 UT   15 54 22.7   -28 24 28     2.155    2.190   78.5   26.8   104   12.7 
2026-09-08 00:00 UT   15 56 02.5   -28 29 39     2.165    2.189   77.9   26.8   104   12.7 
2026-09-09 00:00 UT   15 57 43.4   -28 34 49     2.175    2.188   77.3   26.7   104   12.8 
2026-09-10 00:00 UT   15 59 25.2   -28 39 57     2.185    2.187   76.8   26.6   104   12.8 
2026-09-11 00:00 UT   16 01 08.2   -28 45 03     2.195    2.186   76.2   26.6   103   12.8 
2026-09-12 00:00 UT   16 02 52.1   -28 50 07     2.205    2.185   75.6   26.5   103   12.8 
2026-09-13 00:00 UT   16 04 37.1   -28 55 09     2.215    2.184   75.0   26.4   103   12.8 
2026-09-14 00:00 UT   16 06 23.0   -29 00 09     2.225    2.183   74.5   26.4   103   12.8 
2026-09-15 00:00 UT   16 08 09.9   -29 05 06     2.235    2.182   73.9   26.3   103   12.8 
2026-09-16 00:00 UT   16 09 57.8   -29 10 00     2.244    2.181   73.3   26.2   103   12.8 
2026-09-17 00:00 UT   16 11 46.7   -29 14 52     2.254    2.180   72.8   26.1   103   12.8 
2026-09-18 00:00 UT   16 13 36.5   -29 19 41     2.264    2.179   72.2   26.1   103   12.8 
2026-09-19 00:00 UT   16 15 27.2   -29 24 27     2.274    2.178   71.7   26.0   103   12.8 
2026-09-20 00:00 UT   16 17 18.9   -29 29 09     2.283    2.177   71.1   25.9   103   12.8 
2026-09-21 00:00 UT   16 19 11.5   -29 33 49     2.293    2.176   70.6   25.8   103   12.8 
2026-09-22 00:00 UT   16 21 04.9   -29 38 25     2.303    2.175   70.0   25.7   103   12.8 
2026-09-23 00:00 UT   16 22 59.3   -29 42 57     2.312    2.174   69.5   25.6   103   12.8 
2026-09-24 00:00 UT   16 24 54.5   -29 47 26     2.322    2.173   68.9   25.5   102   12.8 
2026-09-25 00:00 UT   16 26 50.5   -29 51 52     2.331    2.172   68.4   25.4   102   12.8 


    Terminology:
            
    delta:  distance between minor planet and earth in AU
    radius: distance between minor planet and sun in AU
    magn:   magnitude (brightness) estimate    
    ra:     right ascension in hours (24h = 360deg)
    dec:    declination in degrees
    elong:  elongation in degrees (angle sun-earth-minor planet)    
    phase:  phase angle in degrees (angle sun-minor planet-earth)        
    AU:     Astronomical Unit (mean distance between earth and sun: 149597870.7 km
    

Orbital elements provided by the MPC (Minor Planet Center).
Calculations by a modified version of AAPlus, a C# implementation of the AA+ project by PJ Naughter from the algorithms presented in the book "Astronomical Algorithms" by Jean Meeus.
NGC2000 dso catalog and star labels from VizieR as provided by the Strasbourg astronomical Data Center.
Tycho2 catalog from the ESO archive.